Eureka, Nunavut

7:30 PM CST on February 09, 2016 (GMT -0600)
Eureka

Weather History for CWEU - October, 2012

Change the Weather History Date:

Thursday, October 4, 2012

  Actual Average Record
Temperature  
Mean Temperature 8 °F -  
Max Temperature 13 °F -3 °F 26 °F (2015)
Min Temperature 1 °F -17 °F -13 °F (2004)
Degree Days  
Heating Degree Days 57    
Moisture  
Dew Point 8 °F    
Average Humidity 85    
Maximum Humidity 92    
Minimum Humidity 62    
Precipitation  
Precipitation 0.00 in 0.01 in - ()
Sea Level Pressure  
Sea Level Pressure 29.97 in    
Wind  
Wind Speed 9 mph ()    
Max Wind Speed 17 mph    
Max Gust Speed 23 mph    
Visibility 15.0 miles    
Events      
Averages and records for this station are not official NWS values.
T = Trace of Precipitation, MM = Missing Value Source: Averaged Metar Reports

Daily Weather History Graph

Daily Weather History Graph

Search for Another Location

Airport or City:

Trip Planner

Search our weather history database for the weather conditions in past years. The results will help you decide how hot, cold, wet, or windy it might be!

Date:

Astronomy

Oct. 04, 2012 Rise Set
Actual Time 8:00 AM CDT 5:00 PM CDT
Civil Twilight 5:58 AM CDT 7:01 PM CDT
Nautical Twilight 3:18 AM CDT 9:36 PM CDT
Astronomical Twilight Sun does not rise Sun does not rise
Moon No Moon Rise No Moon Set
Length of Visible Light 13h 02m
Length of Day
9h 00m
Waning Gibbous, 82% of the Moon is Illuminated
Oct 4
Waning Gibbous
Oct 8
Last Quarter
Oct 15
New
Oct 21
First Quarter
Oct 29
Full

Hourly Weather History & Observations

Time (CDT) Temp. Windchill Dew Point Humidity Pressure Visibility Wind Dir Wind Speed Gust Speed Precip Events Conditions
1:00 AM 15 °F - 8 °F 62% 29.93 in 15 mi North 17.3 mph - -   Scattered Clouds
1:00 AM 15.8 °F -0.2 °F 8.6 °F 73% 29.93 in 15.0 mi NNW 17.3 mph - N/A   Partly Cloudy
2:00 AM 15.8 °F 0.9 °F 8.6 °F 73% 29.94 in 15.0 mi North 15.0 mph - N/A   Partly Cloudy
3:00 AM 15.8 °F 6.1 °F 12.2 °F 86% 29.95 in 15.0 mi WNW 6.9 mph - N/A   Partly Cloudy
4:00 AM 14.0 °F 1.2 °F 8.6 °F 79% 29.96 in 15.0 mi NW 10.4 mph - N/A   Partly Cloudy
5:00 AM 14.0 °F -2.5 °F 10.4 °F 86% 29.97 in 15.0 mi NNW 17.3 mph 23.0 mph N/A   Partly Cloudy
6:00 AM 14.0 °F -0.2 °F 8.6 °F 79% 29.97 in 15.0 mi North 12.7 mph - N/A   Partly Cloudy
7:00 AM 13 °F - 10 °F 80% 29.98 in 37 mi North 11.5 mph - -   Scattered Clouds
7:00 AM 14.0 °F 0.5 °F 10.4 °F 86% 29.98 in 40.0 mi North 11.5 mph - N/A   Partly Cloudy
8:00 AM 14.0 °F 2.0 °F 10.4 °F 86% 29.97 in 40.0 mi North 9.2 mph - N/A   Partly Cloudy
9:00 AM 12.2 °F 1.7 °F 10.4 °F 92% 29.97 in 40.0 mi WNW 6.9 mph - N/A   Partly Cloudy
10:00 AM 12.2 °F 6.1 °F 10.4 °F 92% 29.96 in 40.0 mi WNW 3.5 mph - N/A   Partly Cloudy
11:00 AM 12.2 °F 6.1 °F 10.4 °F 92% 29.96 in 40.0 mi WNW 3.5 mph - N/A   Partly Cloudy
12:00 PM 14.0 °F 6.5 °F 10.4 °F 86% 29.96 in 40.0 mi NW 4.6 mph - N/A   Partly Cloudy
1:00 PM 13 °F - 11 °F 86% 29.97 in 37 mi NW 6.9 mph - -   Scattered Clouds
1:00 PM 12.2 °F 2.9 °F 10.4 °F 92% 29.97 in 40.0 mi NW 5.8 mph - N/A   Partly Cloudy
2:00 PM 10.4 °F - 6.8 °F 85% 29.99 in 40.0 mi NE 2.3 mph - N/A   Partly Cloudy
3:00 PM 10.4 °F - 8.6 °F 92% 29.99 in 40.0 mi North 2.3 mph - N/A   Partly Cloudy
4:00 PM 8.6 °F 0.1 °F 5.0 °F 85% 29.99 in 40.0 mi NW 4.6 mph - N/A   Partly Cloudy
5:00 PM 6.8 °F - 5.0 °F 92% 29.99 in 40.0 mi North 2.3 mph - N/A   Partly Cloudy
7:00 PM 4 °F - 3 °F 91% 29.99 in 15 mi NE 2.3 mph - -   Scattered Clouds
7:00 PM 5.0 °F -2.1 °F 3.2 °F 92% 29.99 in 15.0 mi NNE 3.5 mph - N/A   Partly Cloudy
9:00 PM 3.2 °F - 1.4 °F 92% 29.99 in 15.0 mi East 2.3 mph - N/A   Partly Cloudy
10:00 PM 1.4 °F - -2.2 °F 85% 29.98 in 15.0 mi Calm Calm - N/A   Partly Cloudy